Regional Weather Roundup
Issued by NWS Sioux Falls, SD

Home | Current Version | Previous Version | Text Only | Print | Product List | Glossary On
Versions: 1 2 3 4 5 6 7 8 9 10 11 12 13 14 15 16 17 18 19 20 21 22 23 24 25 26 27 28 29 30 31 32 33 34 35 36 37 38 39 40 41 42 43 44 45 46 47 48 49 50
000
ASUS43 KFSD 290902
RWRFSD

WEATHER ROUNDUP FOR SE SOUTH DAKOTA/SW MINNESOTA/NW IOWA
NATIONAL WEATHER SERVICE SIOUX FALLS SD
400 AM CDT FRI JUL 29 2016

NOTE: "FAIR" INDICATES FEW OR NO CLOUDS BELOW 12,000 FEET WITH NO
SIGNIFICANT WEATHER AND OR OBSTRUCTIONS TO VISIBILITY.


SDZ038>040-050-052>070-291000-
SOUTHEAST SOUTH DAKOTA

CITY           SKY/WX    TMP DP  RH WIND       PRES   REMARKS
BROOKINGS      CLEAR     55  53  93 NW7       30.08F
CHAMBERLAIN    CLOUDY    67  67  99 CALM      30.10S
HURON          CLEAR     60  56  86 CALM      30.07F
MADISON        FAIR      55  55 100 NE3       30.09F
MITCHELL       CLOUDY    62  57  83 CALM      30.08F
SIOUX FALLS    PTCLDY    57  54  89 N5        30.07F
WINNER         CLOUDY    64  62  93 CALM      30.11F
YANKTON        PTCLDY    63  54  72 NE5       30.05S
$$

MNZ071-072-080-081-089-090-097-098-291000-
SOUTHWEST MINNESOTA

CITY           SKY/WX    TMP DP  RH WIND       PRES   REMARKS
FAIRMONT       CLOUDY    61  54  77 N5        30.04S
JACKSON        MOCLDY    59  55  88 VRB3      30.06F
LUVERNE        CLEAR     55  52  88 CALM      30.07F
MARSHALL       CLEAR     54  52  93 NW3       30.08F
MONTEVIDEO     CLEAR     57  54  88 CALM      30.09F
REDWOOD FALLS  CLEAR     61  55  81 CALM      30.06F
TRACY          PTCLDY    60  57  89 NW5       30.08F
WINDOM         CLEAR     57  55  94 N6        30.06F
WORTHINGTON    CLEAR     57  55  93 N7        30.07F
$$

IAZ001>003-012>014-020>022-031-032-NEZ013-014-SDZ071-291000-
NORTHWEST IOWA

CITY           SKY/WX    TMP DP  RH WIND       PRES   REMARKS
CHEROKEE       PTCLDY    61  61 100 N5        30.03F
DENISON        PTCLDY    61  61 100 CALM      30.00F FOG
ESTHERVILLE    MOCLDY    60  59  96 N3        30.05S
LE MARS        PTCLDY    61  59  94 N5        30.05F
SHELDON        PTCLDY    55  55 100 CALM      30.04F
SIOUX CITY     MOCLDY    66  61  84 NE6       30.03F
SPENCER        CLEAR     60  57  89 N5        30.05F
STORM LAKE     PTCLDY    61  61 100 N7        30.04F
$$

ABBREVIATIONS USED IN REMARKS
   TC - TEMPERATURE IN CELSIUS
  WCI - WIND CHILL INDEX
   HX - HEAT INDEX
  VSB - VISIBILITY





USA.gov is the U.S. government's official web portal to all federal, state and local government web resources and services.